Regional Weather Roundup
Issued by NWS

Home | Current Version | Previous Version | Graphics & Text | Print | Product List | Glossary On
Versions: 1 2 3 4 5 6 7 8 9 10 11 12 13 14 15 16 17 18 19 20 21 22 23 24 25 26 27 28 29 30 31 32 33 34 35 36 37 38 39 40 41 42 43 44 45 46 47 48 49 50
000
ASUS43 KLOT 030512
RWRIL

ILLINOIS REGIONAL WEATHER ROUNDUP
NATIONAL WEATHER SERVICE CHICAGO/ROMEOVILLE IL
1200 AM CDT WED JUN 03 2015

NOTE: "FAIR" INDICATES FEW OR NO CLOUDS BELOW 12,000 FEET WITH NO
SIGNIFICANT WEATHER AND/OR OBSTRUCTIONS TO VISIBILITY.

* THESE STATIONS ARE NOT UNDER NWS QUALITY CONTROL. THEY ALSO MAY NOT
  REPORT WEATHER SUCH AS PRECIPITATION OR FOG.

ILZ001-002-007-009-015-016-024-030600-
NORTHWEST ILLINOIS

CITY           SKY/WX    TMP DP  RH WIND       PRES   REMARKS
MOLINE         PTCLDY    60  51  72 S6        30.03S
STERLING*      PTCLDY    59  48  67 SE6       30.05F
SAVANNA*       PTCLDY    60  49  65 SE7       30.04S
$$

ILZ003-004-008-010-011-017-018-030600-
NORTH CENTRAL ILLINOIS

CITY           SKY/WX    TMP DP  RH WIND       PRES   REMARKS
ROCKFORD       MOCLDY    60  48  64 SE9       30.08S
FREEPORT*      PTCLDY    56  47  74 S6        30.07S
ROCHELLE*      PTCLDY    57  48  71 SE7       30.08R
DE KALB*       CLEAR     54  48  81 E6        30.09S
PERU*          CLEAR     63  48  59 SE8       30.07S
$$

ILZ005-006-012>014-019>023-030600-
NORTHEAST ILLINOIS

CITY           SKY/WX    TMP DP  RH WIND       PRES   REMARKS
CHICAGO-OHARE  PTCLDY    53  45  74 SE8       30.09S
CHICAGO-MIDWAY MOCLDY    57  45  64 SE5       30.10F
AURORA         CLEAR     57  46  66 E8        30.09R
LANSING*       CLEAR     51  44  77 CALM      30.10F
JOLIET*        CLEAR     57  49  74 E6        30.09F
WAUKEGAN       CLEAR     49  44  83 SE3       30.09S
DUPAGE AIRPORT CLEAR     56  46  69 SE6       30.08S
KANKAKEE*      CLEAR     58  53  83 SE6       30.10S
WHEELING       CLEAR     53  45  74 CALM      30.11R
MORRIS*        CLEAR     58  49  72 E8        30.06F
ROMEOVILLE*    CLEAR     55  46  71 E8        30.09S
NORTHERLY ISL    N/A     52  47  83 CALM        N/A
$$

LMZ740>746-030600-
SOUTHERN LAKE MICHIGAN

STATION/POSITION SKY/WX   TEMP    WIND        PRES    VSBY  WAVE
                          AIR SEA DIR/SP/G                  HT/PER
                          (F)     (DEG/KT/KT) (MB)    (MI)  (FT/S)
SOUTHERN BUOY              43 38  120/  8/ 10 1019.8F         0
HARRISON CRIB              53     150/  6/  8   N/A
BURNHAM HARBOR             52     320/  3/  4   N/A
CALUMET HARBOR             56      70/  4/  7   N/A
BURNS HARBOR                      190/  1/  6 1020.0F
MICHIGAN CITY              56      70/  4/  5   N/A
MICHIGAN CITY 6N           56 56  110/  4/  6   N/A           1/ 2
ST. JOSEPH                 56 55  170/  6/  8   N/A           1
$$

ILZ025>027-034>036-040-047-049-050-058-095>099-030600-
WEST-CENTRAL ILLINOIS

CITY           SKY/WX    TMP DP  RH WIND       PRES   REMARKS
QUINCY         PTCLDY    61  55  81 SE3       30.02F
GALESBURG*     PTCLDY    60  52  74 CALM      30.04S
MACOMB*        PTCLDY    58  54  85 SE3       30.05F
JACKSONVILLE*  CLEAR     65  59  81 S8        30.04F
PITTSFIELD*    CLEAR     62  58  87 SE5       30.05S
$$

ILZ028>032-037-038-041>044-048-051>054-059>061-030600-
CENTRAL ILLINOIS

CITY           SKY/WX    TMP DP  RH WIND       PRES   REMARKS
PONTIAC        CLEAR     60  56  84 SE8       30.09S
BLOOMINGTON    CLEAR     60  55  83 SE9       30.08S
DECATUR        CLEAR     59  55  87 E3        30.06S
PEORIA         CLEAR     61  53  75 NE5       30.05F
LACON*         CLEAR     61  49  65 E8        30.04F
LINCOLN*       CLEAR     61  56  83 CALM      30.04S
SPRINGFIELD    CLEAR     61  56  83 CALM      30.05S
TAYLORVILLE    CLEAR     59  55  88 S5        30.05F
$$

ILZ033-039-045-046-055>057-062-063-030600-
EAST-CENTRAL ILLINOIS

CITY           SKY/WX    TMP DP  RH WIND       PRES   REMARKS
CHAMPAIGN      CLEAR     59  55  87 E9        30.08S
DANVILLE*      CLEAR     57  54  88 E5        30.08R
RANTOUL*       CLEAR     60  56  85 E6        30.09S
MATTOON        CLEAR     57  55  93 SE7       30.06S
PARIS*         CLEAR     59  55  85 E8        30.10S
$$

ILZ079-100>102-030600-
SOUTHWEST ILLINOIS

CITY           SKY/WX    TMP DP  RH WIND       PRES   REMARKS
ALTON          CLEAR     59  59 100 SE3       30.06S
BELLEVILLE     PTCLDY    61  58  90 S8        30.05F
CAHOKIA*       CLEAR     61  56  83 SE5       30.06S
SPARTA*        CLOUDY    61  57  88 CALM      30.07F
$$

ILZ064>066-069>071-074>076-080>082-084>086-088>090-092>094-030600-
SOUTH-CENTRAL ILLINOIS

CITY           SKY/WX    TMP DP  RH WIND       PRES   REMARKS
CARBONDALE     CLOUDY    62  56  80 CALM      30.06F
CAIRO*         CLOUDY    63  59  88 NE3       30.06F
EFFINGHAM*     CLEAR     58  55  91 CALM      30.08S FOG
MARION         PTCLDY    59  57  94 CALM      30.07F
MT. VERNON     CLEAR     54  50  87 CALM      30.08S
CENTRALIA*     CLEAR     55  53  94 CALM      30.07S
SALEM*         CLEAR     59  56  91 CALM      30.07F FOG
$$

ILZ067-068-072-073-078-083-087-091-030600-
SOUTHEAST ILLINOIS

CITY           SKY/WX    TMP DP  RH WIND       PRES   REMARKS
LAWRENCEVILLE  CLOUDY    62  58  86 SE6       30.08S
FLORA*         CLEAR     56  55  96 CALM      30.08R FOG
FAIRFIELD*     CLEAR     55  55  99 CALM      30.07S FOG
HARRISBURG*    CLEAR     55  55 100 CALM      30.08F FOG
ROBINSON*      CLEAR     60  56  87 SE6       30.09S
CARMI*         CLEAR     54  52  94 CALM      30.07S FOG
$$

ABBREVIATIONS USED IN REMARKS
   TC - TEMPERATURE IN CELSIUS
  WCI - WIND CHILL INDEX
   HX - HEAT INDEX
  VSB - VISIBILITY
$$




USA.gov is the U.S. government's official web portal to all federal, state and local government web resources and services.